Location: Düngen
(52.0952°N, 10.0219°E)
Time: 14:56:32
(UTC+00:00)

Cosmos 2151 - Pass Details

Date: 11 March 2026
Orbit: 559 x 574 km, 82.5° (Epoch: 14 April)

Event Time Altitude Azimuth Distance (km) Brightness Sun altitude
Rises 18:10:43 0° 194° (SSW) 2,737 6.5 -9.0°
Reaches altitude 10° 18:12:53 10° 196° (SSW) 1,845 5.6 -9.4°
Maximum altitude 18:16:56 73° 281° (W) 590 3.1 -10.0°
Drops below altitude 10° 18:21:02 10° 8° (N) 1,860 5.5 -10.6°
Sets 18:23:14 0° 10° (N) 2,761 6.4 -10.9°
